Regional Weather Roundup
Issued by NWS

Home | Current Version | Previous Version | Graphics & Text | Print | Product List | Glossary On
Versions: 1 2 3 4 5 6 7 8 9 10 11 12 13 14 15 16 17 18 19 20 21 22 23 24 25 26 27 28 29 30 31 32 33 34 35 36 37 38 39 40 41 42 43 44 45 46 47 48 49 50
104
ASUS45 KSLC 110710
RWRUT

UTAH REGIONAL WEATHER ROUNDUP
NATIONAL WEATHER SERVICE SALT LAKE CITY UT
1200 AM MST MON DEC 11 2017

UTZ001>011-023>025-110800-

NORTHERN UTAH

CITY           SKY/WX    TMP DP  RH WIND       PRES   REMARKS
BRIGHAM CITY   PTCLDY    21  17  86 CALM      30.63R
HILL AFB       PTCLDY    24  14  67 E13       30.59R WCI  12
LOGAN          CLOUDY    21  15  78 E5        30.64R WCI  15
OGDEN          PTCLDY    22  15  75 S6        30.60R WCI  14
SALT LAKE CITY CLEAR     24  21  88 W3        30.61R FOG
TOOELE VALLEY  MOCLDY    18  14  86 CALM      30.63R
WENDOVER       PTCLDY    14   9  80 CALM      30.61S
HEBER CITY       N/A     14   9  79 CALM      30.56S
WEST JORDAN    PTCLDY    21  20  94 CALM      30.60S

$$

UTZ011>015-024>027-110800-

CENTRAL/NORTHEAST UTAH

CITY           SKY/WX    TMP DP  RH WIND       PRES   REMARKS
PROVO AIRPORT  PTCLDY    18  15  88 E3        30.62R
MOAB/CANYONLAN MOCLDY    21   2  43 CALM      30.53S
DELTA          CLOUDY    12   5  73 CALM      30.58S
PRICE          PTCLDY    22  -2  35 N5        30.52R WCI  16
ROOSEVELT      CLOUDY    14   5  67 W7        30.59S WCI   4
VERNAL         CLOUDY    18   6  59 W6        30.56S WCI  10

$$

UTZ013>016-019>022-027-110800-

SOUTHERN UTAH

CITY           SKY/WX    TMP DP  RH WIND       PRES   REMARKS
BRYCE CANYON   PTCLDY    13 -12  32 W14       30.54F WCI  -2
CEDAR CITY     MOCLDY    16   6  65 VRB3      30.52R
MILFORD        MOCLDY    13   7  77 NE5       30.57R WCI   5
ST GEORGE      MOSUNNY   35   2  24 CALM      30.46R
HANKSVILLE     CLOUDY    19   1  45 CALM      30.57S
BLANDING         N/A     25   0  33 N6        30.56S WCI  18

$$

REGIONAL REPORTS     COLORADO/ARIZONA

CITY           SKY/WX    TMP DP  RH WIND       PRES   REMARKS
CRAIG, CO      CLOUDY     6   1  80 NW3       30.56R
GRAND JUNCTION CLOUDY    26   2  35 E5        30.54S WCI  20
RIFLE, CO      CLOUDY    20   2  45 CALM      30.56S
MONTROSE, CO   CLOUDY    19   0  43 SE12      30.58R WCI   7
CORTEZ, CO     CLOUDY    12  -1  56 E8        30.51F WCI   0
COLORADO CITY    N/A     30  -6  21 NW3       30.47S
PAGE, AZ       MOCLDY    32  13  45 CALM      30.51R
GRAND CANYON   MOCLDY    28 -11  18 E8        30.48S WCI  20
KINGMAN, AZ    MOCLDY    40  -1  18 VRB3      30.37R
FLAGSTAFF, AZ  MOCLDY    24  -9  23 E6        30.49S WCI  17

$$

REGIONAL REPORTS    NEVADA/IDAHO/WYOMING

CITY           SKY/WX    TMP DP  RH WIND       PRES   REMARKS
LAS VEGAS, NV  CLOUDY    46   7  20 W5        30.36R
ELY, NY        MOCLDY    11  -6  46 S10       30.57S WCI  -3
ELKO, NV       MOCLDY    18  14  84 CALM      30.56R
POCATELLO, ID  CLOUDY    13  11  92 E3        30.61S
BURLEY, ID     CLEAR     16  12  84 CALM      30.60R
FORT BRIDGER,    N/A     33   4  28 W13       30.56R WCI  24
EVANSTON, WY   CLOUDY    27   6  41 SE6       30.55R WCI  20
ROCK SPRINGS,  CLOUDY    30   6  36 SW14      30.50R WCI  19

$$




USA.gov is the U.S. government's official web portal to all federal, state and local government web resources and services.